Location: Unspecified
(0.0000°N, 0.0000°E)
Time: 05:36:02
(UTC+00:00)

Transit 2A - Pass Details

Date: 10 October 2020
Orbit: 593 x 966 km, 66.7° (Epoch: 28 October)

Event Time Altitude Azimuth Distance (km) Brightness Sun altitude
Rises 03:00:44 0° 177° (S) 3,296 - -41.2°
Reaches altitude 10° 03:03:25 10° 165° (SSE) 2,427 - -40.5°
Exits shadow 03:07:40 27° 116° (ESE) 1,621 8.1 -39.5°
Maximum altitude 03:08:08 27° 108° (ESE) 1,618 8.1 -39.4°
Drops below altitude 10° 03:13:08 10° 52° (NE) 2,606 9.1 -38.1°
Sets 03:16:07 0° 41° (NE) 3,586 9.8 -37.4°
